[[[{"header":{"parameterUnit":"kt","parameterCategory":2,"dx":1,"dy":1,"la1":30.253999710083008,"la2":30.299108505249023,"lo1":-89.0895004272461,"lo2":-89.04439544677734,"nx":28,"ny":28,"refTime":"2022-09-17T21:00:00:Z","depth":"0","parameterNumber":2,"parameterNumberName":"U-component_of_CURRENTS"},"data":[0.5405,0.5323,0.5317,0.5277,0.5318,0.5239,0.5221,0.5217,0.5343,0.5383,0.544,0.5573,0.5628,0.5531,0.5211,0.5095,0.4656,0.4532,0.4591,0.5018,0.5089,0.5158,0.4972,0.4472,0.4471,0.334,0.3331,0.3325,0.5509,0.549,0.5492,0.5524,0.5539,0.5621,0.5672,0.5626,0.5715,0.5994,0.6202,0.6271,0.6322,0.6396,0.6373,0.6178,0.589,0.5909,0.5319,0.5246,0.6152,0.5993,0.5702,0.5703,0.5703,0.5703,0.5704,0.5704,0.5697,0.5654,0.5696,0.5701,0.576,0.579,0.5761,0.5907,0.6029,0.6203,0.6511,0.6694,0.6881,0.7354,0.7398,0.7123,0.726,0.6809,0.6783,0.6591,0.6308,0.735,0.742,0.7425,0.7429,0.7432,0.7435,0,0.5831,0.5881,0.5876,0.5901,0.5926,0.5959,0.6046,0.6084,0.6304,0.6442,0.6675,0.6861,0.7289,0.7406,0.7746,0.7811,0.7291,0.7678,0.7337,0.6561,0.6229,0.6105,0.7163,0.7165,0.7169,0.7171,0.7173,0.7174,0.6053,0.601,0.6074,0.6076,0.6091,0.6118,0.6154,0.6314,0.6388,0.6646,0.6704,0.6982,0.7187,0.7555,0.7747,0.7984,0.7652,0.7737,0.7578,0.721,0.7182,0.6945,0.6796,0.7209,0.7205,0.7201,0.7198,0,0.6181,0.6213,0.6175,0.6225,0.6244,0.6237,0.6358,0.6394,0.6534,0.6648,0.6698,0.6935,0.7173,0.7366,0.7563,0.7644,0.7567,0.7868,0.748,0.7495,0.7272,0.7207,0.6932,0.6757,0.8025,0.8028,0.8031,0,0.6369,0.6321,0.6366,0.6334,0.6318,0.64,0.6421,0.6511,0.6636,0.6713,0.6858,0.6951,0.7116,0.728,0.7371,0.7577,0.7576,0.7624,0.7687,0.7352,0.7332,0.7034,0.695,0.7584,0.7582,0.7581,0.758,0,0.6499,0.6487,0.6432,0.6441,0.65,0.6503,0.6568,0.6666,0.6719,0.6837,0.6893,0.7008,0.7088,0.7194,0.7339,0.7301,0.7507,0.7484,0.7626,0.7634,0.7357,0.7338,0.7021,0.7578,0.7578,0.7577,0.7576,0,0.6637,0.6617,0.6549,0.6591,0.6595,0.6601,0.6673,0.6712,0.6823,0.6868,0.6949,0.7027,0.7083,0.7096,0.7242,0.7208,0.7287,0.7329,0.734,0.7403,0.7465,0.729,0.7287,0.6927,0.7484,0.7483,0.7482,0,0.6766,0.6696,0.6733,0.6697,0.6682,0.6784,0.6801,0.6855,0.6918,0.6965,0.7017,0.7049,0.707,0.7092,0.7124,0.7191,0.7236,0.7157,0.7367,0.7372,0.7441,0.7497,0.7135,0.7271,0.7462,0.7464,0.7466,0,0.6855,0.6867,0.6851,0.685,0.6908,0.6911,0.6931,0.6976,0.6998,0.7031,0.7051,0.704,0.7095,0.7091,0.7118,0.7134,0.7209,0.7172,0.7176,0.7253,0.7391,0.7463,0.7484,0.7264,0.7265,0.7266,0.745,0,0.6977,0.6954,0.6935,0.6943,0.6961,0.6961,0.7025,0.7045,0.7082,0.7114,0.7129,0.7137,0.7154,0.7146,0.7138,0.7157,0.7201,0.7221,0.7221,0.7225,0.7307,0.7319,0.7177,0.7177,0.7177,0.7177,0,0,0.7078,0.7034,0.7079,0.7055,0.7072,0.7161,0.7138,0.7161,0.7182,0.7189,0.7203,0.7208,0.7192,0.719,0.7177,0.718,0.724,0.7151,0.7214,0.7218,0.7221,0.7299,0.7311,0.7177,0.7177,0.7177,0.7177,0,0.7112,0.7129,0.7087,0.7112,0.7145,0.7181,0.7187,0.7219,0.7229,0.7215,0.7245,0.7246,0.7214,0.7216,0.7211,0.7185,0.7228,0.719,0.7142,0.7213,0.7217,0.722,0.7297,0.7308,0.7178,0.7178,0.7178,0,0.7193,0.7203,0.7193,0.7208,0.7225,0.7228,0.7275,0.7279,0.7278,0.7296,0.727,0.7284,0.7275,0.725,0.7237,0.7231,0.7225,0.7191,0.719,0.7157,0.7231,0.7234,0.7238,0.7198,0.7198,0.7198,0,0,0.7224,0.7202,0.7249,0.7222,0.7236,0.7271,0.7277,0.7299,0.7308,0.7306,0.73,0.7289,0.7283,0.7265,0.7252,0.7208,0.7241,0.7193,0.7192,0.7192,0.7159,0.7231,0.7234,0.7199,0.7199,0.7199,0,0,0.7242,0.7271,0.7292,0.726,0.7291,0.7319,0.7306,0.7333,0.7323,0.732,0.7323,0.7319,0.73,0.7281,0.7288,0.7244,0.7248,0.7245,0.7251,0.7249,0.7248,0.7216,0.7287,0,0,0,0,0,0.7309,0.727,0.7289,0.7291,0.7295,0.731,0.7311,0.7338,0.7353,0.7343,0.7344,0.7336,0.7293,0.7299,0.7288,0.7271,0.7203,0.7202,0.7202,0.72,0.7198,0.7197,0,0,0,0,0,0,0.7311,0.731,0.7291,0.7317,0.732,0.731,0.7339,0.7344,0.7355,0.7359,0.7338,0.7335,0.7329,0.7303,0.7293,0.7278,0.729,0.7203,0.7202,0.7201,0.7199,0.7198,0.7197,0,0,0,0,0,0.7312,0.7312,0.731,0.7317,0.732,0.7354,0.734,0.7344,0.7342,0.7342,0.7341,0.7368,0.7328,0.7321,0.7297,0.7283,0.7297,0.7293,0.7202,0.7202,0.7201,0.7199,0,0,0,0,0,0,0.7313,0.73,0.7311,0.7314,0.7335,0.7355,0.7357,0.7344,0.7323,0.7325,0.7371,0.7374,0.7327,0.7321,0.7315,0.7286,0.7302,0.7298,0.7296,0.7202,0.7202,0.7201,0,0,0,0,0,0,0.7301,0.7301,0.7312,0.7332,0.7337,0.7356,0.7358,0.7316,0.7321,0.735,0.7354,0.7372,0.7333,0.7322,0.7317,0.7252,0.7306,0.7302,0.73,0.7299,0.7202,0.7201,0,0,0,0,0,0,0.7302,0.7302,0.7331,0.7334,0.7339,0.7361,0.7318,0.7311,0.7368,0.7348,0.7373,0.7375,0.7333,0.7329,0.7318,0.7255,0.7253,0.7306,0.7303,0.7302,0.7301,0,0,0,0,0,0,0,0.7302,0.7294,0.7308,0.7336,0.734,0.7341,0.734,0.734,0.7369,0.7371,0.7373,0.7374,0.7325,0.7321,0.7317,0.7257,0,0,0.7306,0.7304,0,0,0,0,0,0,0,0,0.7295,0.7294,0.7308,0.731,0.7311,0.7341,0.734,0.734,0.7369,0.7371,0.7372,0.7374,0.7324,0.7321,0.7318,0,0,0,0,0,0,0,0,0,0,0,0,0,0,0,0.7309,0.731,0,0.7341,0.734,0.734,0.7369,0.7371,0.7372,0.7373,0.7323,0.732,0.7318,0,0,0,0,0,0,0,0,0,0,0,0,0,0,0,0,0,0,0,0,0,0,0,0,0,0,0,0,0,0,0,0,0,0,0,0,0,0,0,0,0,0,0,0,0,0,0,0,0,0,0,0,0,0,0,0,0,0,0,0,0,0,0,0,0,0,0,0,0]}],[{"header":{"parameterUnit":"kt","parameterCategory":2,"dx":1,"dy":1,"la1":30.253999710083008,"la2":30.299108505249023,"lo1":-89.0895004272461,"lo2":-89.04439544677734,"nx":28,"ny":28,"refTime":"2022-09-17T21:00:00:Z","depth":"0","parameterNumber":3,"parameterNumberName":"V-component_of_CURRENTS"},"data":[-0.0336,-0.0191,-0.014,0.0186,0.0349,0.0608,0.0762,0.111,0.1466,0.2117,0.2537,0.2758,0.2382,0.0816,-0.0324,-0.0627,-0.1083,-0.1071,-0.1424,-0.121,-0.1219,-0.1227,-0.1235,-0.1161,-0.1162,-0.1686,-0.1692,-0.1696,-0.0434,-0.036,-0.0189,-0.0002,0.0192,0.021,0.0442,0.0641,0.1001,0.1414,0.1704,0.1962,0.1606,0.1034,0.0231,-0.0313,-0.059,-0.0665,-0.0849,-0.0926,-0.052,-0.0485,-0.0249,-0.0249,-0.0248,-0.0248,-0.0248,-0.0248,-0.0604,-0.0509,-0.04,-0.0239,-0.0093,0.0074,0.022,0.0382,0.0619,0.0942,0.0953,0.1299,0.1053,0.0653,0.0243,-0.0357,-0.05,-0.0572,-0.075,-0.0871,-0.0922,-0.0435,-0.0244,-0.0247,-0.0249,-0.0252,-0.0253,0,-0.0762,-0.0732,-0.0636,-0.0465,-0.0347,-0.0225,-0.011,0.0003,0.0055,0.0231,0.046,0.0566,0.0427,0.0362,-0.0002,-0.0256,-0.0849,-0.0675,-0.097,-0.0948,-0.1028,-0.1138,-0.0795,-0.0597,-0.0602,-0.0605,-0.0608,-0.061,-0.0961,-0.0882,-0.0778,-0.0685,-0.0645,-0.0532,-0.0436,-0.0433,-0.0325,-0.0193,-0.0079,-0.0059,0.0054,-0.0164,-0.0459,-0.0715,-0.1036,-0.078,-0.0909,-0.1127,-0.1332,-0.1467,-0.1536,-0.0663,-0.0656,-0.0651,-0.0646,0,-0.1069,-0.1053,-0.093,-0.0867,-0.084,-0.0741,-0.0656,-0.0559,-0.0542,-0.0374,-0.0347,-0.0363,-0.0397,-0.0619,-0.0818,-0.1011,-0.1221,-0.1206,-0.0961,-0.0961,-0.1206,-0.1366,-0.142,-0.149,-0.1188,-0.1184,-0.1182,0,-0.1221,-0.114,-0.1103,-0.1036,-0.0914,-0.093,-0.0801,-0.0788,-0.0729,-0.0605,-0.0713,-0.0613,-0.0855,-0.0903,-0.1117,-0.1215,-0.1246,-0.1399,-0.1428,-0.1264,-0.1242,-0.1488,-0.1652,-0.1542,-0.1543,-0.1543,-0.1543,0,-0.1328,-0.1266,-0.1166,-0.1143,-0.1086,-0.1043,-0.1024,-0.0984,-0.0928,-0.0891,-0.083,-0.091,-0.0905,-0.1064,-0.1233,-0.131,-0.1336,-0.1474,-0.1472,-0.1465,-0.133,-0.1312,-0.1384,-0.1544,-0.1544,-0.1544,-0.1544,0,-0.1439,-0.1388,-0.1277,-0.1219,-0.1196,-0.1159,-0.108,-0.106,-0.1035,-0.1034,-0.1053,-0.111,-0.1148,-0.1271,-0.1388,-0.1396,-0.1503,-0.1588,-0.159,-0.1539,-0.1624,-0.1373,-0.1205,-0.1448,-0.1634,-0.1635,-0.1636,0,-0.1534,-0.1436,-0.1442,-0.1355,-0.1298,-0.1321,-0.1284,-0.127,-0.1275,-0.1236,-0.1319,-0.1321,-0.1456,-0.146,-0.1509,-0.1607,-0.1622,-0.1646,-0.1746,-0.1747,-0.1637,-0.1515,-0.1307,-0.1232,-0.1646,-0.1645,-0.1644,0,-0.1596,-0.1551,-0.1534,-0.1497,-0.1483,-0.1452,-0.1429,-0.1405,-0.1363,-0.1421,-0.137,-0.1486,-0.1522,-0.1572,-0.1656,-0.1685,-0.1641,-0.1763,-0.1769,-0.1718,-0.1654,-0.1544,-0.1527,-0.1707,-0.1706,-0.1705,-0.1652,0,-0.1636,-0.1609,-0.1586,-0.1552,-0.1538,-0.1507,-0.1516,-0.151,-0.1534,-0.1552,-0.1572,-0.1673,-0.1726,-0.1761,-0.1833,-0.1816,-0.1839,-0.1911,-0.1955,-0.1892,-0.188,-0.1873,-0.1999,-0.2002,-0.2005,-0.2007,0,0,-0.1702,-0.1665,-0.1679,-0.1644,-0.163,-0.1664,-0.1621,-0.1637,-0.1675,-0.1674,-0.172,-0.1819,-0.19,-0.1924,-0.1917,-0.1969,-0.1982,-0.1967,-0.1933,-0.1925,-0.1917,-0.1901,-0.1891,-0.2011,-0.2012,-0.2013,-0.2013,0,-0.1707,-0.1718,-0.1687,-0.1681,-0.1676,-0.169,-0.1678,-0.1696,-0.1711,-0.1731,-0.1811,-0.1856,-0.1946,-0.1996,-0.2038,-0.2001,-0.2053,-0.2026,-0.1929,-0.1953,-0.1941,-0.1931,-0.1912,-0.1902,-0.2019,-0.2019,-0.2019,0,-0.1743,-0.1745,-0.174,-0.1738,-0.1746,-0.1725,-0.1775,-0.1766,-0.1756,-0.1871,-0.1887,-0.1956,-0.2052,-0.2079,-0.2101,-0.2129,-0.2114,-0.2143,-0.2132,-0.2117,-0.2145,-0.2131,-0.2119,-0.2271,-0.2271,-0.2271,0,0,-0.1749,-0.1736,-0.1749,-0.1742,-0.1737,-0.1767,-0.1774,-0.1793,-0.1835,-0.1857,-0.1921,-0.1995,-0.2052,-0.2085,-0.2147,-0.217,-0.2198,-0.2166,-0.2154,-0.2144,-0.2122,-0.2148,-0.2135,-0.2271,-0.2271,-0.2271,0,0,-0.1758,-0.1765,-0.1779,-0.1772,-0.1776,-0.1809,-0.1807,-0.1831,-0.1879,-0.1891,-0.1984,-0.2008,-0.2045,-0.2109,-0.2105,-0.2151,-0.2209,-0.2212,-0.2086,-0.2073,-0.2062,-0.2017,-0.2175,0,0,0,0,0,-0.1771,-0.1757,-0.177,-0.1772,-0.1799,-0.1796,-0.1803,-0.1846,-0.1871,-0.1863,-0.1938,-0.1988,-0.2128,-0.2127,-0.2145,-0.2115,-0.2277,-0.2276,-0.2275,-0.2121,-0.2106,-0.2094,0,0,0,0,0,0,-0.1772,-0.1773,-0.1771,-0.1799,-0.1806,-0.1798,-0.1852,-0.1863,-0.1873,-0.188,-0.1972,-0.199,-0.2056,-0.2122,-0.2138,-0.2107,-0.217,-0.2277,-0.2276,-0.2275,-0.2116,-0.2104,-0.2093,0,0,0,0,0,-0.1773,-0.1774,-0.1803,-0.1801,-0.1807,-0.1856,-0.1853,-0.1863,-0.1874,-0.1966,-0.1984,-0.1904,-0.2054,-0.2073,-0.2132,-0.2098,-0.216,-0.2166,-0.2276,-0.2276,-0.2275,-0.211,0,0,0,0,0,0,-0.1774,-0.1791,-0.1806,-0.181,-0.1812,-0.1858,-0.1865,-0.1863,-0.1961,-0.1976,-0.1904,-0.1909,-0.2052,-0.2067,-0.2081,-0.2089,-0.2152,-0.2158,-0.2161,-0.2276,-0.2275,-0.2275,0,0,0,0,0,0,-0.1791,-0.1794,-0.1808,-0.1819,-0.1825,-0.1859,-0.1865,-0.1918,-0.1964,-0.1897,-0.1902,-0.1906,-0.205,-0.2063,-0.2074,-0.2153,-0.2146,-0.2151,-0.2155,-0.2157,-0.2275,-0.2275,0,0,0,0,0,0,-0.1793,-0.1796,-0.1818,-0.1823,-0.1828,-0.1879,-0.191,-0.1949,-0.1928,-0.1893,-0.1932,-0.1934,-0.2046,-0.2058,-0.2069,-0.2142,-0.215,-0.2146,-0.2149,-0.2152,-0.2154,0,0,0,0,0,0,0,-0.1795,-0.1761,-0.1778,-0.1826,-0.1831,-0.1846,-0.1848,-0.1849,-0.1928,-0.193,-0.1931,-0.1933,-0.2115,-0.2121,-0.2127,-0.2133,0,0,-0.2145,-0.2148,0,0,0,0,0,0,0,0,-0.1762,-0.1761,-0.1778,-0.1779,-0.178,-0.1847,-0.1848,-0.1849,-0.1929,-0.193,-0.1931,-0.1932,-0.2117,-0.2121,-0.2126,0,0,0,0,0,0,0,0,0,0,0,0,0,0,0,-0.1778,-0.1779,0,-0.1847,-0.1848,-0.1849,-0.1929,-0.193,-0.1931,-0.1932,-0.2118,-0.2122,-0.2126,0,0,0,0,0,0,0,0,0,0,0,0,0,0,0,0,0,0,0,0,0,0,0,0,0,0,0,0,0,0,0,0,0,0,0,0,0,0,0,0,0,0,0,0,0,0,0,0,0,0,0,0,0,0,0,0,0,0,0,0,0,0,0,0,0,0,0,0,0]}]],[[{"header":{"parameterUnit":"kt","parameterCategory":2,"dx":1,"dy":1,"la1":30.253999710083008,"la2":30.299108505249023,"lo1":-89.0895004272461,"lo2":-89.04439544677734,"nx":28,"ny":28,"refTime":"2022-09-17T21:00:00:Z","depth":"2","parameterNumber":2,"parameterNumberName":"U-component_of_CURRENTS"},"data":[0.6305,0.6136,0.5999,0.5551,0.5408,0.5101,0.4897,0.4451,0.4236,0.3645,0.3368,0.347,0.3782,0.315,0.315,0.2954,0.3434,0.2845,0.4268,0.4448,0.4553,0.4935,0.4582,0,0,0,0,0,0.6332,0.6267,0.6178,0.599,0.5783,0.5876,0.5726,0.5412,0.5031,0.4938,0.4675,0.4154,0.393,0.4125,0.3896,0.3892,0.3955,0.3787,0.3845,0.397,0.4083,0.3767,0.2849,0.2843,0.2839,0.2834,0,0,0.6476,0.6406,0.6394,0.6235,0.6223,0.6098,0.5884,0.5903,0.5744,0.5512,0.5751,0.5424,0.549,0.5123,0.5034,0.5036,0.5498,0.53,0.535,0.5414,0.5159,0.5043,0.4612,0.4619,0.4626,0.4631,0.4636,0,0.6556,0.6566,0.6541,0.644,0.6394,0.6331,0.6318,0.6279,0.6403,0.6341,0.6295,0.6242,0.633,0.6007,0.6019,0.601,0.6262,0.6036,0.7055,0.5884,0.579,0.5801,0.5856,0.5537,0.555,0.556,0.5567,0.5572,0.6736,0.6678,0.6647,0.6616,0.6593,0.6522,0.6507,0.6572,0.6585,0.6712,0.6731,0.6844,0.6802,0.6858,0.6825,0.6848,0.7146,0.6339,0.6223,0.7087,0.7094,0.7105,0.7112,0.5709,0.5691,0.5677,0.5666,0,0.6846,0.6882,0.6797,0.6784,0.6764,0.6687,0.6703,0.6673,0.6745,0.6762,0.6793,0.6958,0.7064,0.7207,0.7371,0.7312,0.7345,0.73,0.6777,0.6695,0.7176,0.717,0.7075,0.7062,0.7052,0.7043,0.7036,0,0.7024,0.6969,0.6993,0.6943,0.6846,0.6913,0.6825,0.685,0.6897,0.6902,0.7011,0.7033,0.7222,0.7306,0.7419,0.7388,0.7561,0.7354,0.7347,0.6904,0.6838,0.7698,0.7696,0.7699,0.7698,0.7696,0.7695,0,0.7106,0.7151,0.7088,0.7088,0.7103,0.7064,0.707,0.7089,0.7091,0.7107,0.7127,0.7178,0.722,0.7322,0.7442,0.7471,0.7575,0.7622,0.7391,0.7373,0.6942,0.6879,0.7694,0.7694,0.7693,0.7693,0.7692,0,0.7244,0.726,0.7233,0.7199,0.7209,0.72,0.7154,0.7176,0.72,0.7224,0.7241,0.7292,0.7309,0.7349,0.7463,0.7438,0.7511,0.7571,0.7578,0.7264,0.7267,0.6856,0.6702,0.7688,0.7687,0.7687,0.7686,0,0.7234,0.7277,0.7341,0.7328,0.7322,0.7384,0.7385,0.7406,0.742,0.7402,0.7428,0.7416,0.7466,0.7437,0.7442,0.7505,0.7518,0.7466,0.7613,0.7618,0.7256,0.7205,0.6663,0.6724,0.7674,0.7675,0.7676,0,0.7222,0.7317,0.7332,0.7298,0.7415,0.7435,0.7486,0.7486,0.7447,0.7538,0.7475,0.75,0.7509,0.7493,0.7482,0.7475,0.7505,0.7518,0.752,0.7545,0.7597,0.7239,0.7214,0.7504,0.7504,0.7504,0.7667,0,0.7092,0.7176,0.726,0.7351,0.7408,0.7476,0.7505,0.7557,0.7577,0.7561,0.7592,0.761,0.7584,0.759,0.7572,0.7545,0.7602,0.7596,0.7536,0.7557,0.7636,0.7643,0.7577,0.7578,0.7579,0.758,0,0,0.699,0.7089,0.7238,0.7306,0.7328,0.741,0.7435,0.7471,0.7548,0.7535,0.7581,0.7601,0.7614,0.7552,0.7551,0.7592,0.7641,0.7527,0.7568,0.7566,0.7565,0.7638,0.7643,0.7581,0.7582,0.7582,0.7582,0,0.6922,0.7068,0.7193,0.7244,0.7353,0.7359,0.7411,0.7473,0.7492,0.7545,0.7537,0.7567,0.7619,0.7565,0.7546,0.7605,0.7608,0.7634,0.756,0.7575,0.7572,0.757,0.7641,0.7645,0.7585,0.7584,0.7584,0,0.681,0.691,0.7003,0.7149,0.7204,0.7243,0.7254,0.7374,0.7374,0.7389,0.7445,0.7483,0.7485,0.7508,0.7543,0.751,0.7563,0.7544,0.7543,0.7535,0.7551,0.7549,0.7547,0.7557,0.7556,0.7555,0,0,0.6761,0.6922,0.6991,0.7134,0.7182,0.7215,0.727,0.7292,0.735,0.7385,0.7407,0.7436,0.7454,0.7466,0.7518,0.7542,0.7569,0.7534,0.7535,0.7536,0.7529,0.7544,0.7544,0.7552,0.7552,0.7552,0,0,0.6722,0.6873,0.6882,0.7054,0.7117,0.7153,0.7246,0.7249,0.7322,0.7343,0.7328,0.7341,0.7434,0.7442,0.7406,0.7445,0.7451,0.746,0.7385,0.7388,0.7389,0.736,0.7335,0,0,0,0,0,0.6718,0.6854,0.6861,0.6897,0.7041,0.7139,0.7152,0.7198,0.7199,0.7267,0.7298,0.7272,0.741,0.7378,0.7389,0.7358,0.7515,0.7521,0.7528,0.7446,0.7449,0.7451,0,0,0,0,0,0,0.6732,0.6774,0.6857,0.6902,0.6936,0.7133,0.7085,0.7096,0.7195,0.7202,0.726,0.7269,0.7247,0.737,0.7381,0.735,0.7332,0.7517,0.7523,0.7528,0.7447,0.7449,0.7451,0,0,0,0,0,0.6743,0.6777,0.7021,0.6898,0.6927,0.7008,0.7084,0.7094,0.7175,0.7187,0.7199,0.7226,0.7245,0.7259,0.7376,0.7345,0.7324,0.7328,0.7521,0.7525,0.7529,0.7448,0,0,0,0,0,0,0.6751,0.6744,0.7025,0.7033,0.6909,0.6999,0.7022,0.7092,0.7156,0.717,0.7144,0.7147,0.7243,0.7255,0.7265,0.7341,0.7318,0.7322,0.7325,0.7524,0.7528,0.7531,0,0,0,0,0,0,0.6727,0.6751,0.7029,0.704,0.7049,0.6992,0.7012,0.7051,0.7156,0.7105,0.7112,0.7145,0.7252,0.7251,0.726,0.7315,0.7314,0.7318,0.732,0.7322,0.7527,0.753,0,0,0,0,0,0,0.6736,0.6756,0.7037,0.7044,0.7051,0.713,0.7024,0.7179,0.7152,0.7101,0.7155,0.7157,0.7249,0.7257,0.7256,0.7307,0.7313,0.7314,0.7316,0.7318,0.732,0,0,0,0,0,0,0,0.6744,0.662,0.6998,0.7047,0.7053,0.7109,0.7109,0.711,0.7152,0.7153,0.7155,0.7156,0.7292,0.7296,0.73,0.73,0,0,0.7313,0.7315,0,0,0,0,0,0,0,0,0.661,0.6617,0.6998,0.7001,0.7003,0.7109,0.7109,0.7109,0.7152,0.7153,0.7154,0.7155,0.7293,0.7296,0.73,0,0,0,0,0,0,0,0,0,0,0,0,0,0,0,0.6998,0.7001,0,0.7109,0.7109,0.7109,0.7152,0.7153,0.7154,0.7155,0.7294,0.7297,0.73,0,0,0,0,0,0,0,0,0,0,0,0,0,0,0,0,0,0,0,0,0,0,0,0,0,0,0,0,0,0,0,0,0,0,0,0,0,0,0,0,0,0,0,0,0,0,0,0,0,0,0,0,0,0,0,0,0,0,0,0,0,0,0,0,0,0,0,0,0]}],[{"header":{"parameterUnit":"kt","parameterCategory":2,"dx":1,"dy":1,"la1":30.253999710083008,"la2":30.299108505249023,"lo1":-89.0895004272461,"lo2":-89.04439544677734,"nx":28,"ny":28,"refTime":"2022-09-17T21:00:00:Z","depth":"2","parameterNumber":3,"parameterNumberName":"V-component_of_CURRENTS"},"data":[0.1697,0.1823,0.1882,0.2183,0.2282,0.2389,0.2491,0.2725,0.2799,0.2919,0.2797,0.2639,0.1981,0.1356,0.0764,0.0297,0.0192,0.0205,0.0358,0.0417,0.0424,0.0002,0.0002,0,0,0,0,0,0.1642,0.1702,0.1826,0.1966,0.2137,0.2058,0.2236,0.2347,0.2661,0.2711,0.2819,0.2334,0.1935,0.134,0.0508,0.0063,-0.0008,-0.0091,-0.0104,-0.01,-0.0098,-0.0105,-0.0127,-0.0128,-0.013,-0.0131,0,0,0.1573,0.1615,0.1706,0.1767,0.1842,0.1968,0.2023,0.2152,0.2311,0.2427,0.2449,0.2428,0.1958,0.126,0.0823,0.0262,0.0254,0.0003,0.0002,0.0002,0.0002,0.003,0.0008,0.0008,0.0008,0.0008,0.0008,0,0.1537,0.1515,0.1577,0.1653,0.1657,0.1691,0.1679,0.1739,0.1712,0.1798,0.201,0.2025,0.1709,0.1417,0.0868,0.0603,0.0221,0.0156,0.02,-0.0005,0.0024,0.0039,0.0044,-0.0002,-0.0002,-0.0002,-0.0002,-0.0002,0.1469,0.1497,0.1507,0.1553,0.1516,0.1456,0.1472,0.1353,0.1419,0.1418,0.1485,0.1378,0.1456,0.1193,0.0793,0.0443,0.0346,0.017,-0.0005,0.002,0.0035,0.004,0.0045,-0.0003,-0.0003,-0.0003,-0.0003,0,0.1425,0.1449,0.1497,0.1487,0.1456,0.1422,0.1347,0.1376,0.126,0.1277,0.119,0.1151,0.1091,0.0868,0.0639,0.0442,0.0246,0.0158,0.0202,0.0212,0.0041,0.0046,-0.0008,-0.0008,-0.0008,-0.0008,-0.0007,0,0.1385,0.1407,0.1398,0.1433,0.1431,0.1409,0.1378,0.1348,0.1255,0.1246,0.1024,0.1061,0.0764,0.0689,0.0445,0.0288,0.0316,0.0015,0.0024,0.0031,0.0035,0.0038,0.0044,-0.0018,-0.0018,-0.0018,-0.0018,0,0.1316,0.1361,0.1411,0.143,0.1474,0.1433,0.1408,0.1339,0.1313,0.114,0.1086,0.0876,0.0766,0.0576,0.0357,0.0298,0.0225,0.0153,0.0035,0.0039,0.0035,0.004,-0.0018,-0.0018,-0.0018,-0.0018,-0.0018,0,0.1276,0.1317,0.138,0.142,0.1425,0.142,0.1418,0.1418,0.1279,0.1199,0.1013,0.0851,0.0612,0.0513,0.0316,0.034,0.0172,0.0082,0.0082,0.0093,0.013,0.0146,0.0091,0.0114,0.0115,0.0116,0.0116,0,0.1231,0.1302,0.1307,0.1357,0.1401,0.1383,0.1395,0.1337,0.1271,0.118,0.0954,0.0783,0.0635,0.0484,0.0374,0.0228,0.0122,0.0144,0.013,0.013,0.0158,0.01,0.0103,0.0102,0.0126,0.0125,0.0124,0,0.1201,0.1254,0.1243,0.1262,0.1283,0.1312,0.1314,0.1284,0.1248,0.1121,0.1036,0.0759,0.0608,0.0511,0.0356,0.0255,0.0143,0.0189,0.0188,0.0208,0.01,0.0114,0.0109,0.0134,0.0132,0.0131,0.0131,0,0.1244,0.1231,0.1236,0.1247,0.1264,0.1285,0.129,0.1263,0.1188,0.1122,0.0952,0.0793,0.0617,0.0526,0.0399,0.0246,0.0265,0.0268,0.0266,0.0219,0.0228,0.0222,0.0299,0.03,0.03,0.0301,0,0,0.1195,0.1208,0.1181,0.1203,0.1221,0.1196,0.1225,0.1215,0.1164,0.1092,0.1045,0.0799,0.0648,0.0485,0.0396,0.0369,0.0365,0.0309,0.0241,0.0235,0.0229,0.0235,0.0228,0.0301,0.0301,0.0302,0.0302,0,0.1229,0.1175,0.1168,0.1189,0.119,0.1212,0.1198,0.1198,0.1149,0.1088,0.0972,0.0797,0.067,0.0542,0.0465,0.0387,0.0353,0.0336,0.0275,0.0246,0.0239,0.0233,0.0237,0.0231,0.0303,0.0303,0.0303,0,0.1223,0.1217,0.1199,0.1206,0.1204,0.124,0.1195,0.1186,0.119,0.1063,0.0978,0.0853,0.0729,0.0602,0.0527,0.0519,0.0356,0.0375,0.0372,0.0364,0.0335,0.0327,0.0319,0.0419,0.0419,0.042,0,0,0.1235,0.1207,0.1233,0.1215,0.1217,0.1216,0.1216,0.1188,0.1137,0.1088,0.099,0.0862,0.0753,0.0659,0.0583,0.047,0.0469,0.039,0.0385,0.0381,0.037,0.034,0.0332,0.0422,0.0422,0.0422,0,0,0.125,0.1247,0.1215,0.1197,0.1218,0.1254,0.1235,0.121,0.1117,0.1054,0.0951,0.0911,0.0767,0.0709,0.0747,0.0533,0.0555,0.0546,0.0554,0.0546,0.054,0.0548,0.0676,0,0,0,0,0,0.1274,0.1262,0.1233,0.1231,0.1229,0.128,0.1282,0.1231,0.1162,0.1148,0.1026,0.0956,0.0701,0.0734,0.0708,0.0617,0.0446,0.0442,0.0438,0.0424,0.0417,0.0411,0,0,0,0,0,0,0.1274,0.1272,0.1236,0.1271,0.1271,0.1279,0.1215,0.1203,0.116,0.1141,0.0989,0.0955,0.0888,0.0741,0.0719,0.0633,0.0683,0.0444,0.0441,0.0437,0.0421,0.0416,0.041,0,0,0,0,0,0.1275,0.1273,0.126,0.1271,0.1272,0.1228,0.121,0.1198,0.1136,0.105,0.1015,0.1086,0.0895,0.0862,0.0727,0.0644,0.0697,0.0689,0.0442,0.0439,0.0436,0.0419,0,0,0,0,0,0,0.1275,0.1269,0.1261,0.1262,0.1221,0.1223,0.1213,0.1195,0.1039,0.1015,0.1145,0.1133,0.0901,0.0874,0.085,0.065,0.0709,0.0701,0.0696,0.044,0.0437,0.0435,0,0,0,0,0,0,0.1271,0.1269,0.1261,0.1199,0.1193,0.1219,0.121,0.1145,0.1031,0.1139,0.1129,0.114,0.087,0.0883,0.0863,0.0773,0.0718,0.0711,0.0705,0.0702,0.0438,0.0436,0,0,0,0,0,0,0.1271,0.127,0.1198,0.1193,0.1187,0.1195,0.1153,0.1104,0.1125,0.1141,0.111,0.1103,0.0877,0.0859,0.0874,0.0793,0.0778,0.0718,0.0713,0.0709,0.0707,0,0,0,0,0,0,0,0.1271,0.127,0.1258,0.1188,0.1182,0.1278,0.1277,0.1277,0.1123,0.1117,0.1111,0.1106,0.0762,0.0754,0.0745,0.081,0,0,0.0719,0.0715,0,0,0,0,0,0,0,0,0.1271,0.127,0.1258,0.1259,0.126,0.1278,0.1277,0.1277,0.1122,0.1117,0.1113,0.1108,0.076,0.0753,0.0746,0,0,0,0,0,0,0,0,0,0,0,0,0,0,0,0.1258,0.1259,0,0.1278,0.1277,0.1277,0.1122,0.1118,0.1114,0.111,0.0758,0.0752,0.0747,0,0,0,0,0,0,0,0,0,0,0,0,0,0,0,0,0,0,0,0,0,0,0,0,0,0,0,0,0,0,0,0,0,0,0,0,0,0,0,0,0,0,0,0,0,0,0,0,0,0,0,0,0,0,0,0,0,0,0,0,0,0,0,0,0,0,0,0,0]}]],[[{"header":{"parameterUnit":"kt","parameterCategory":2,"dx":1,"dy":1,"la1":30.253999710083008,"la2":30.299108505249023,"lo1":-89.0895004272461,"lo2":-89.04439544677734,"nx":28,"ny":28,"refTime":"2022-09-17T21:00:00:Z","depth":"4","parameterNumber":2,"parameterNumberName":"U-component_of_CURRENTS"},"data":[0.0873,0.0952,0.1085,0.1,0.0983,0.1021,0.1144,0.1373,0.1375,0.1727,0.1801,0.2083,0.2224,0.2442,0.2439,0.2472,0.2414,0.2789,0.2782,0.2801,0.2819,0.2835,0.2734,0,0,0,0,0,0.0918,0.0993,0.11,0.111,0.1144,0.1222,0.1399,0.1558,0.1879,0.1941,0.2144,0.2262,0.2435,0.2535,0.2493,0.2686,0.2759,0.2617,0.2616,0.2812,0.2832,0.2728,0,0,0,0,0,0,0.099,0.1021,0.1144,0.1237,0.1304,0.1342,0.15,0.1665,0.1854,0.2284,0.2306,0.2614,0.287,0.2868,0.2813,0.2809,0.2795,0.267,0.2696,0.2716,0.2609,0.2471,0.2389,0,0,0,0,0,0.1016,0.1098,0.1187,0.1281,0.1423,0.1526,0.1728,0.1838,0.2169,0.2455,0.2621,0.2757,0.2916,0.2979,0.2993,0.2919,0.3039,0.2965,0.2976,0.2945,0.2866,0.2784,0.2776,0.2906,0.2909,0.291,0.2911,0,0.0993,0.1097,0.1271,0.1318,0.144,0.1652,0.179,0.2107,0.2232,0.264,0.2674,0.2985,0.3127,0.3083,0.3168,0.3122,0.3073,0.3016,0.2984,0.2896,0.2812,0.2798,0.2784,0.2927,0.2926,0.2925,0.2923,0,0.0986,0.1085,0.1231,0.1444,0.1526,0.1649,0.1947,0.2114,0.24,0.2628,0.2733,0.3026,0.3162,0.3227,0.3312,0.3212,0.3154,0.3092,0.3189,0.311,0.2824,0.2803,0.2953,0.2947,0.2942,0.2938,0.2935,0,0.0968,0.1081,0.1259,0.1322,0.15,0.165,0.1905,0.209,0.2361,0.2514,0.2743,0.2877,0.3077,0.3154,0.3139,0.3122,0.3254,0.303,0.296,0.306,0.3039,0.3037,0.3011,0.3261,0.326,0.326,0.3259,0,0.0938,0.1075,0.1225,0.1253,0.1452,0.1619,0.1767,0.2013,0.2169,0.2468,0.2634,0.2815,0.2991,0.3035,0.3096,0.306,0.3191,0.3121,0.2939,0.292,0.3024,0.2999,0.3259,0.3259,0.3259,0.3258,0.3258,0,0.0924,0.0999,0.1132,0.1335,0.1374,0.1485,0.1789,0.191,0.2159,0.2323,0.2537,0.2604,0.2818,0.2793,0.2972,0.2897,0.2923,0.2903,0.2903,0.2714,0.2522,0.2551,0.2791,0.2788,0.2784,0.2781,0.2779,0,0.0923,0.1009,0.1062,0.1203,0.128,0.1423,0.1541,0.173,0.1934,0.2134,0.2266,0.2417,0.245,0.2558,0.2663,0.2685,0.2772,0.2681,0.2674,0.2676,0.2447,0.2631,0.267,0.2735,0.2741,0.2745,0.2747,0,0.0894,0.1006,0.1008,0.109,0.1195,0.1279,0.1435,0.164,0.1775,0.1957,0.2134,0.2289,0.2397,0.2431,0.244,0.2523,0.2695,0.2471,0.2471,0.2452,0.2799,0.2597,0.2603,0.264,0.2646,0.2651,0.2717,0,0.0933,0.099,0.1012,0.1073,0.1149,0.1238,0.1339,0.15,0.1637,0.1723,0.1927,0.2023,0.2173,0.2174,0.218,0.2346,0.227,0.2215,0.2142,0.2309,0.2308,0.2333,0.2012,0.2009,0.2007,0.2006,0,0,0.0921,0.0962,0.0994,0.1019,0.1079,0.1186,0.1257,0.1327,0.1493,0.1597,0.161,0.1816,0.1861,0.1954,0.2039,0.2037,0.203,0.2015,0.2224,0.2248,0.227,0.2279,0.2305,0.2002,0.2002,0.2001,0.2,0,0.0909,0.0929,0.0956,0.0993,0.1104,0.1162,0.1204,0.1312,0.1376,0.1544,0.1522,0.1661,0.175,0.179,0.1801,0.1993,0.1908,0.1972,0.2135,0.2203,0.2229,0.2253,0.2267,0.2291,0.1996,0.1996,0.1996,0,0.0877,0.0911,0.0916,0.0995,0.1041,0.1094,0.1098,0.1197,0.1266,0.1261,0.1396,0.1442,0.1457,0.1575,0.1632,0.1597,0.1816,0.1738,0.175,0.1808,0.1876,0.1908,0.1936,0.1567,0.1566,0.1564,0,0,0.0873,0.0888,0.095,0.0992,0.1022,0.108,0.1127,0.1164,0.1227,0.1254,0.131,0.1366,0.1406,0.1457,0.1504,0.1634,0.1643,0.1684,0.1704,0.1721,0.1786,0.1859,0.189,0.1558,0.1558,0.1558,0,0,0.086,0.0888,0.0906,0.0936,0.1018,0.1061,0.1105,0.1133,0.1206,0.1218,0.1207,0.1219,0.1339,0.1354,0.1279,0.1464,0.1385,0.1402,0.1443,0.1469,0.1489,0.1547,0.1171,0,0,0,0,0,0.0869,0.0887,0.0904,0.0917,0.0976,0.1062,0.1076,0.1095,0.1083,0.1126,0.1177,0.1118,0.1316,0.1249,0.1263,0.132,0.1482,0.1495,0.1508,0.1592,0.1619,0.1641,0,0,0,0,0,0,0.0874,0.0883,0.0905,0.0942,0.0959,0.1057,0.1001,0.1006,0.1078,0.1075,0.1114,0.1117,0.1097,0.1237,0.1251,0.1306,0.1166,0.1487,0.1499,0.1509,0.1601,0.1623,0.1642,0,0,0,0,0,0.0879,0.0887,0.0961,0.0943,0.0957,0.1005,0.0997,0.1002,0.1051,0.1069,0.1073,0.1071,0.1098,0.1111,0.1245,0.1301,0.1156,0.1161,0.1494,0.1504,0.1512,0.1612,0,0,0,0,0,0,0.0882,0.0883,0.0966,0.0975,0.0922,0.1001,0.1005,0.0998,0.104,0.1048,0.1022,0.1018,0.1099,0.1109,0.1119,0.1301,0.1148,0.1153,0.1157,0.1501,0.1509,0.1515,0,0,0,0,0,0,0.0881,0.0888,0.097,0.0942,0.0947,0.0997,0.1001,0.1065,0.104,0.0987,0.0987,0.102,0.1093,0.1108,0.1116,0.1214,0.1142,0.1147,0.1151,0.1153,0.1507,0.1513,0,0,0,0,0,0,0.0886,0.0892,0.0939,0.0942,0.0946,0.1032,0.1054,0.1109,0.1025,0.0983,0.102,0.1017,0.1094,0.1101,0.1114,0.1209,0.1213,0.1142,0.1146,0.1148,0.115,0,0,0,0,0,0,0,0.089,0.0823,0.0931,0.0943,0.0946,0.1057,0.1057,0.1058,0.1025,0.1023,0.102,0.1018,0.1112,0.1118,0.1124,0.1204,0,0,0.1141,0.1144,0,0,0,0,0,0,0,0,0.0822,0.0822,0.0932,0.0934,0.0937,0.1057,0.1057,0.1058,0.1025,0.1023,0.1021,0.1019,0.1114,0.1118,0.1123,0,0,0,0,0,0,0,0,0,0,0,0,0,0,0,0.0932,0.0934,0,0.1057,0.1057,0.1058,0.1024,0.1023,0.1021,0.102,0.1115,0.1119,0.1123,0,0,0,0,0,0,0,0,0,0,0,0,0,0,0,0,0,0,0,0,0,0,0,0,0,0,0,0,0,0,0,0,0,0,0,0,0,0,0,0,0,0,0,0,0,0,0,0,0,0,0,0,0,0,0,0,0,0,0,0,0,0,0,0,0,0,0,0,0]}],[{"header":{"parameterUnit":"kt","parameterCategory":2,"dx":1,"dy":1,"la1":30.253999710083008,"la2":30.299108505249023,"lo1":-89.0895004272461,"lo2":-89.04439544677734,"nx":28,"ny":28,"refTime":"2022-09-17T21:00:00:Z","depth":"4","parameterNumber":3,"parameterNumberName":"V-component_of_CURRENTS"},"data":[0.1294,0.1368,0.147,0.1534,0.1624,0.1819,0.1971,0.2073,0.1937,0.1984,0.171,0.1675,0.1188,0.1507,0.0763,0.0677,0.0566,0.0138,0.013,0.001,0.0021,0.003,0.0126,0,0,0,0,0,0.1344,0.1394,0.1515,0.1617,0.1761,0.1909,0.2073,0.2175,0.2266,0.2124,0.2128,0.1792,0.1343,0.1121,0.0791,0.0732,0.0351,0.0335,0.0239,0.0017,0.0029,0.0118,0,0,0,0,0,0,0.1419,0.1451,0.1567,0.1698,0.1849,0.1996,0.212,0.2141,0.2211,0.2181,0.2101,0.1808,0.1652,0.1152,0.0783,0.0464,0.041,0.0315,0.0311,0.0318,0.0431,0.0539,0.0379,0,0,0,0,0,0.1447,0.154,0.1586,0.1758,0.191,0.2043,0.2165,0.2242,0.2283,0.2347,0.2148,0.1891,0.156,0.1139,0.0773,0.0421,0.0274,0.0135,0.014,0.0198,0.0256,0.0211,0.023,0.0074,0.0076,0.0077,0.0077,0,0.145,0.1538,0.1693,0.1753,0.1839,0.1983,0.2078,0.2186,0.2201,0.2187,0.2117,0.194,0.1747,0.1183,0.0861,0.0385,0.0313,0.0166,0.0229,0.0277,0.0225,0.0242,0.0258,0.0087,0.0086,0.0085,0.0085,0,0.1446,0.1523,0.1624,0.1731,0.1794,0.1853,0.1998,0.2059,0.2087,0.2083,0.2079,0.1892,0.1625,0.1297,0.0932,0.074,0.0424,0.0303,0.0502,0.0443,0.0268,0.0281,0.0103,0.0099,0.0096,0.0094,0.0092,0,0.1425,0.1491,0.1615,0.1644,0.175,0.1719,0.1828,0.1832,0.1844,0.1832,0.1707,0.1652,0.1405,0.1189,0.0968,0.0693,0.0698,0.0491,0.0418,0.058,0.059,0.0543,0.055,0.0494,0.0495,0.0497,0.0498,0,0.1385,0.1441,0.1536,0.1528,0.1548,0.1625,0.1648,0.161,0.1649,0.1587,0.1611,0.1416,0.1395,0.118,0.0979,0.0998,0.0699,0.0679,0.0478,0.0473,0.0554,0.0559,0.05,0.05,0.05,0.0501,0.0501,0,0.1329,0.137,0.1437,0.1477,0.1477,0.1504,0.1547,0.1534,0.1471,0.1486,0.1421,0.1315,0.1222,0.1191,0.0985,0.1043,0.0916,0.0792,0.0781,0.071,0.0636,0.0669,0.0628,0.063,0.0632,0.0633,0.0635,0,0.1308,0.1351,0.1325,0.1368,0.1396,0.1384,0.1376,0.1364,0.138,0.1353,0.1254,0.1206,0.1182,0.1179,0.1094,0.0966,0.0882,0.0965,0.0721,0.0715,0.0678,0.0626,0.0841,0.066,0.0657,0.0654,0.0653,0,0.1258,0.1293,0.1289,0.1324,0.1283,0.1287,0.1301,0.131,0.1335,0.1298,0.1276,0.1193,0.1171,0.1123,0.1048,0.0974,0.0911,0.0947,0.094,0.089,0.0716,0.0661,0.0641,0.085,0.0848,0.0847,0.067,0,0.1203,0.1242,0.1257,0.1253,0.1238,0.127,0.1234,0.1273,0.1298,0.1264,0.1219,0.1152,0.1098,0.1044,0.1026,0.0949,0.0919,0.0877,0.087,0.0862,0.0783,0.077,0.0912,0.0911,0.091,0.0909,0,0,0.117,0.1206,0.12,0.1191,0.1195,0.1204,0.1213,0.1208,0.1204,0.1209,0.1219,0.1103,0.1061,0.0961,0.0973,0.0933,0.088,0.0958,0.0869,0.0865,0.0861,0.0787,0.0775,0.0908,0.0908,0.0907,0.0907,0,0.1132,0.115,0.1187,0.1168,0.119,0.1184,0.1195,0.119,0.1199,0.1202,0.1142,0.1104,0.105,0.0982,0.0938,0.0928,0.0862,0.0897,0.0959,0.0865,0.0862,0.0859,0.0786,0.0776,0.0905,0.0905,0.0905,0,0.1076,0.1086,0.1112,0.112,0.1131,0.1124,0.1119,0.1152,0.1153,0.1109,0.1113,0.1064,0.0989,0.0952,0.0935,0.0933,0.0853,0.0889,0.0892,0.0924,0.0826,0.0823,0.082,0.0857,0.0857,0.0857,0,0,0.1046,0.1082,0.1071,0.1109,0.1111,0.1111,0.1125,0.113,0.1118,0.112,0.1092,0.1053,0.0995,0.0981,0.0935,0.0913,0.0867,0.0887,0.0889,0.0891,0.0924,0.0828,0.0825,0.0858,0.0858,0.0858,0,0,0.1026,0.1035,0.1045,0.1075,0.1082,0.1069,0.1101,0.1096,0.1093,0.1108,0.1055,0.1045,0.1014,0.0985,0.1001,0.0924,0.0909,0.0906,0.0956,0.0958,0.096,0.1012,0.0955,0,0,0,0,0,0.1005,0.1032,0.1042,0.1048,0.1065,0.1066,0.1069,0.1079,0.1086,0.1098,0.1078,0.1048,0.0976,0.099,0.0979,0.096,0.0867,0.0866,0.0864,0.0922,0.0924,0.0927,0,0,0,0,0,0,0.1007,0.1012,0.1041,0.1029,0.1035,0.1065,0.1054,0.1056,0.1085,0.1086,0.1053,0.1045,0.1009,0.0992,0.0983,0.0966,0.0958,0.0867,0.0865,0.0864,0.0923,0.0925,0.0927,0,0,0,0,0,0.1009,0.1013,0.1039,0.1029,0.1034,0.1053,0.1053,0.1055,0.1076,0.1037,0.1031,0.1089,0.1009,0.1,0.0986,0.097,0.0964,0.0961,0.0866,0.0865,0.0864,0.0924,0,0,0,0,0,0,0.101,0.1004,0.104,0.1042,0.1031,0.1052,0.1054,0.1054,0.1024,0.1022,0.1066,0.1066,0.101,0.1003,0.0996,0.0974,0.0968,0.0965,0.0963,0.0865,0.0864,0.0863,0,0,0,0,0,0,0.1003,0.1006,0.1041,0.1043,0.1045,0.1051,0.1053,0.1021,0.1021,0.1052,0.1054,0.1066,0.1006,0.1004,0.0999,0.0949,0.0972,0.0969,0.0967,0.0965,0.0864,0.0863,0,0,0,0,0,0,0.1005,0.1007,0.1042,0.1043,0.1045,0.1066,0.1019,0.1025,0.1064,0.1051,0.1065,0.1065,0.1007,0.1002,0.1001,0.0954,0.0951,0.0972,0.097,0.0968,0.0967,0,0,0,0,0,0,0,0.1006,0.0987,0.1034,0.1044,0.1046,0.1065,0.1064,0.1064,0.1064,0.1065,0.1065,0.1065,0.0988,0.0985,0.0982,0.0958,0,0,0.0972,0.097,0,0,0,0,0,0,0,0,0.0987,0.0987,0.1035,0.1035,0.1036,0.1065,0.1064,0.1064,0.1064,0.1065,0.1065,0.1065,0.0988,0.0985,0.0982,0,0,0,0,0,0,0,0,0,0,0,0,0,0,0,0.1035,0.1035,0,0.1065,0.1064,0.1064,0.1065,0.1065,0.1065,0.1065,0.0987,0.0985,0.0983,0,0,0,0,0,0,0,0,0,0,0,0,0,0,0,0,0,0,0,0,0,0,0,0,0,0,0,0,0,0,0,0,0,0,0,0,0,0,0,0,0,0,0,0,0,0,0,0,0,0,0,0,0,0,0,0,0,0,0,0,0,0,0,0,0,0,0,0,0]}]]]